FW3598 Weather Reports


time (UTC)temp
F
wind
direction
speed
knots
gust
knots
rain 1hr
in
rain 24hr
in
rain mn
in
humidity
%
barometer
mb
20260503200123 76 158 0.0 2.6 0.00 0.00 0.00 57 1012.8
20260503195123 76 202 0.0 1.7 0.00 0.00 0.00 57 1012.8
20260503194123 75 142 0.0 1.7 0.00 0.00 0.00 56 1013.0
20260503193124 74 184 0.0 2.6 0.00 0.00 0.00 57 1013.1
20260503192123 74 180 0.0 1.7 0.00 0.00 0.00 57 1013.2
20260503191123 74 169 0.0 1.7 0.00 0.00 0.00 57 1013.3
20260503190124 75 180 0.0 1.7 0.00 0.00 0.00 60 1013.6
20260503185124 73 180 0.0 2.6 0.00 0.00 0.00 62 1013.6
20260503184124 73 202 0.0 1.7 0.00 0.00 0.00 65 1013.6
20260503183123 72 293 0.0 0.0 0.00 0.00 0.00 65 1013.6
20260503182124 72 203 0.0 0.0 0.00 0.00 0.00 66 1013.7
20260503181145 72 270 0.0 0.0 0.00 0.00 0.00 67 1013.7
20260503180123 72 180 0.0 0.0 0.00 0.00 0.00 67 1013.6
20260503175124 72 203 0.0 0.0 0.00 0.00 0.00 66 1013.6
20260503174124 72 113 0.0 0.0 0.00 0.00 0.00 66 1013.7
20260503173123 72 203 0.0 0.0 0.00 0.00 0.00 66 1013.7
20260503172124 71 225 0.0 0.0 0.00 0.00 0.00 66 1013.8
20260503171123 71 68 0.0 0.0 0.00 0.00 0.00 66 1013.8
20260503170123 70 158 0.0 0.0 0.00 0.00 0.00 65 1014.0
20260503160123 63 158 0.0 0.0 0.00 0.00 0.00 85 1014.5
20260503150144 57 203 0.0 0.0 0.00 0.00 0.00 99 1014.3
20260503140124 53 23 0.0 0.0 0.00 0.00 0.00 99 1014.3
20260503131123 51 23 0.0 0.0 0.98 0.00 0.00 99 1014.2
20260503130123 51 23 0.0 0.0 0.98 0.00 0.00 99 1014.1